Weather History for KRZL - October, 2012

Change the Weather History Date:

Monday, October 15, 2012

  Actual Average (KVPZ) Record (KVPZ)
Temperature  
Mean Temperature 50 °F 53 °F  
Max Temperature 59 °F 63 °F 78 °F (1999)
Min Temperature 41 °F 42 °F 29 °F (2006)
Degree Days  
Heating Degree Days 15 13  
Month to date heating degree days 161  
Since 1 July heating degree days 291  
Cooling Degree Days 0 0  
Month to date cooling degree days 11  
Year to date cooling degree days 713  
Moisture  
Dew Point 40 °F    
Average Humidity 76    
Maximum Humidity 100    
Minimum Humidity 39    
Precipitation  
Precipitation 0.00 in 0.11 in 0.75 in (2008)
Month to date precipitation 1.54  
Year to date precipitation 30.29  
Sea Level Pressure  
Sea Level Pressure 29.91 in    
Wind  
Wind Speed 8 mph (WNW)    
Max Wind Speed 14 mph    
Max Gust Speed 18 mph    
Visibility 10 miles    
Events      
T = Trace of Precipitation, MM = Missing Value Source: NWS Daily Summary

Daily Weather History Graph

Daily Weather History Graph

Search for Another Location

Airport or City:

Trip Planner

Search our weather history database for the weather conditions in past years. The results will help you decide how hot, cold, wet, or windy it might be!

Date:

Astronomy

Oct. 15, 2012 Rise Set
Actual Time 7:00 AM CDT 6:07 PM CDT
Civil Twilight 6:32 AM CDT 6:35 PM CDT
Nautical Twilight 6:01 AM CDT 7:06 PM CDT
Astronomical Twilight 5:29 AM CDT 7:38 PM CDT
Moon 7:11 AM CDT (10/15) 6:06 PM CDT (10/15)
Length of Visible Light 12h 02m
Length of Day
11h 06m
New Moon, 0% of the Moon is Illuminated
Oct 15
New Moon
Oct 21
First Quarter
Oct 29
Full
Nov 6
Last Quarter
Nov 13
New

Hourly Weather History & Observations

Time (CDT) Temp. Windchill Dew Point Humidity Pressure Visibility Wind Dir Wind Speed Gust Speed Precip Events Conditions
12:15 AM 50.0 °F - 48.2 °F 94% 29.80 in 5.0 mi West 6.9 mph - N/A   Overcast
12:35 AM 50.0 °F - 48.2 °F 94% 29.80 in 3.0 mi West 11.5 mph - N/A   Drizzle
12:55 AM 50.0 °F - 48.2 °F 94% 29.80 in 3.0 mi WNW 12.7 mph - N/A   Heavy Drizzle
1:15 AM 48.2 °F - 46.4 °F 93% 29.81 in 5.0 mi West 9.2 mph - N/A   Light Drizzle
1:35 AM 48.2 °F - 46.4 °F 93% 29.81 in 7.0 mi West 13.8 mph 17.3 mph N/A   Overcast
1:55 AM 46.4 °F 41.9 °F 46.4 °F 100% 29.81 in 10.0 mi WNW 9.2 mph 16.1 mph N/A   Overcast
2:15 AM 46.4 °F 41.5 °F 44.6 °F 93% 29.82 in 10.0 mi West 10.4 mph - N/A   Overcast
2:35 AM 46.4 °F 42.4 °F 44.6 °F 93% 29.82 in 10.0 mi West 8.1 mph - N/A   Overcast
2:55 AM 46.4 °F 41.5 °F 44.6 °F 93% 29.82 in 10.0 mi West 10.4 mph 16.1 mph N/A   Overcast
3:15 AM 46.4 °F 41.1 °F 44.6 °F 93% 29.82 in 10.0 mi West 11.5 mph 16.1 mph N/A   Overcast
3:35 AM 46.4 °F 42.4 °F 44.6 °F 93% 29.82 in 10.0 mi West 8.1 mph - N/A   Overcast
3:55 AM 46.4 °F 41.9 °F 44.6 °F 93% 29.82 in 10.0 mi West 9.2 mph - N/A   Overcast
4:15 AM 46.4 °F 42.4 °F 44.6 °F 93% 29.82 in 10.0 mi West 8.1 mph - N/A   Overcast
4:55 AM 46.4 °F 41.5 °F 44.6 °F 93% 29.83 in 10.0 mi West 10.4 mph - N/A   Overcast
5:15 AM 46.4 °F 41.9 °F 44.6 °F 93% 29.83 in 10.0 mi West 9.2 mph - N/A   Overcast
5:35 AM 46.4 °F 42.9 °F 42.8 °F 87% 29.84 in 10.0 mi West 6.9 mph - N/A   Overcast
5:55 AM 44.6 °F 40.7 °F 42.8 °F 93% 29.84 in 10.0 mi West 6.9 mph - N/A   Mostly Cloudy
6:15 AM 44.6 °F 41.4 °F 42.8 °F 93% 29.85 in 10.0 mi WSW 5.8 mph - N/A   Clear
6:35 AM 42.8 °F 38.6 °F 42.8 °F 100% 29.85 in 10.0 mi WSW 6.9 mph - N/A   Clear
7:15 AM 42.8 °F 40.1 °F 41.0 °F 93% 29.87 in 7.0 mi West 4.6 mph - N/A   Clear
7:35 AM 42.8 °F 39.3 °F 42.8 °F 100% 29.88 in 7.0 mi West 5.8 mph - N/A   Mostly Cloudy
7:55 AM 44.6 °F 39.7 °F 42.8 °F 93% 29.88 in 10.0 mi WNW 9.2 mph - N/A   Overcast
8:15 AM 44.6 °F 41.4 °F 42.8 °F 93% 29.89 in 10.0 mi WNW 5.8 mph - N/A   Overcast
8:35 AM 44.6 °F 40.7 °F 42.8 °F 93% 29.90 in 10.0 mi WNW 6.9 mph - N/A   Overcast
8:55 AM 44.6 °F 40.7 °F 42.8 °F 93% 29.91 in 10.0 mi West 6.9 mph - N/A   Overcast
9:15 AM 46.4 °F 43.5 °F 42.8 °F 87% 29.91 in 10.0 mi West 5.8 mph - N/A   Overcast
9:35 AM 46.4 °F 42.9 °F 42.8 °F 87% 29.91 in 10.0 mi WNW 6.9 mph - N/A   Overcast
9:55 AM 46.4 °F 41.5 °F 42.8 °F 87% 29.92 in 10.0 mi WNW 10.4 mph - N/A   Mostly Cloudy
10:15 AM 48.2 °F - 41.0 °F 76% 29.92 in 10.0 mi NW 6.9 mph 17.3 mph N/A   Mostly Cloudy
10:35 AM 50.0 °F - 41.0 °F 71% 29.93 in 10.0 mi West 10.4 mph - N/A   Scattered Clouds
10:55 AM 51.8 °F - 42.8 °F 71% 29.94 in 10.0 mi WNW 6.9 mph - N/A   Scattered Clouds
11:15 AM 53.6 °F - 42.8 °F 67% 29.93 in 10.0 mi West 9.2 mph - N/A   Scattered Clouds
11:35 AM 53.6 °F - 41.0 °F 62% 29.94 in 10.0 mi WNW 10.4 mph 17.3 mph N/A   Scattered Clouds
11:55 AM 51.8 °F - 41.0 °F 67% 29.94 in 10.0 mi West 9.2 mph - N/A   Scattered Clouds
12:15 PM 53.6 °F - 39.2 °F 58% 29.94 in 10.0 mi WNW 11.5 mph 17.3 mph N/A   Scattered Clouds
12:35 PM 55.4 °F - 39.2 °F 54% 29.94 in 10.0 mi West 10.4 mph - N/A   Scattered Clouds
12:55 PM 55.4 °F - 39.2 °F 54% 29.94 in 10.0 mi NW 9.2 mph 16.1 mph N/A   Scattered Clouds
1:15 PM 55.4 °F - 37.4 °F 51% 29.93 in 10.0 mi WNW 11.5 mph - N/A   Clear
1:35 PM 57.2 °F - 35.6 °F 44% 29.93 in 10.0 mi NW 11.5 mph 17.3 mph N/A   Clear
1:55 PM 59.0 °F - 35.6 °F 42% 29.93 in 10.0 mi NW 11.5 mph 17.3 mph N/A   Clear
2:15 PM 59.0 °F - 33.8 °F 39% 29.93 in 10.0 mi WNW 11.5 mph 18.4 mph N/A   Clear
2:35 PM 59.0 °F - 33.8 °F 39% 29.93 in 10.0 mi NW 9.2 mph - N/A   Clear
2:55 PM 59.0 °F - 33.8 °F 39% 29.93 in 10.0 mi WNW 10.4 mph - N/A   Clear
3:15 PM 59.0 °F - 33.8 °F 39% 29.94 in 10.0 mi WNW 11.5 mph 18.4 mph N/A   Scattered Clouds
3:35 PM 59.0 °F - 33.8 °F 39% 29.94 in 10.0 mi WNW 9.2 mph - N/A   Clear
3:55 PM 59.0 °F - 33.8 °F 39% 29.94 in 10.0 mi WNW 9.2 mph - N/A   Clear
4:15 PM 59.0 °F - 33.8 °F 39% 29.94 in 10.0 mi NW 8.1 mph - N/A   Clear
4:35 PM 59.0 °F - 33.8 °F 39% 29.95 in 10.0 mi WNW 10.4 mph - N/A   Clear
4:55 PM 59.0 °F - 33.8 °F 39% 29.95 in 10.0 mi WNW 9.2 mph - N/A   Clear
5:15 PM 57.2 °F - 33.8 °F 41% 29.95 in 10.0 mi WNW 5.8 mph - N/A   Clear
5:35 PM 55.4 °F - 33.8 °F 44% 29.94 in 10.0 mi WNW 4.6 mph - N/A   Clear
5:55 PM 53.6 °F - 35.6 °F 51% 29.94 in 10.0 mi Calm Calm - N/A   Clear
6:15 PM 48.2 °F - 37.4 °F 66% 29.95 in 10.0 mi Calm Calm - N/A   Clear
6:35 PM 44.6 °F - 37.4 °F 76% 29.95 in 10.0 mi Calm Calm - N/A   Clear
6:55 PM 44.6 °F - 39.2 °F 81% 29.95 in 10.0 mi Calm Calm - N/A   Clear
7:15 PM 44.6 °F - 41.0 °F 87% 29.95 in 10.0 mi Calm Calm - N/A   Clear
7:35 PM 42.8 °F - 41.0 °F 93% 29.95 in 10.0 mi Calm Calm - N/A   Clear
7:55 PM 42.8 °F - 41.0 °F 93% 29.96 in 10.0 mi Calm Calm - N/A   Clear
8:15 PM 44.6 °F - 39.2 °F 81% 29.96 in 10.0 mi Calm Calm - N/A   Clear
8:35 PM 42.8 °F - 39.2 °F 87% 29.96 in 10.0 mi Calm Calm - N/A   Clear
8:55 PM 41.0 °F - 39.2 °F 93% 29.96 in 10.0 mi Calm Calm - N/A   Clear
9:15 PM 41.0 °F - 39.2 °F 93% 29.96 in 10.0 mi Calm Calm - N/A   Clear
9:35 PM 42.8 °F - 39.2 °F 87% 29.96 in 10.0 mi Calm Calm - N/A   Clear
9:55 PM 42.8 °F 41.1 °F 39.2 °F 87% 29.97 in 10.0 mi ENE 3.5 mph - N/A   Clear
10:15 PM 42.8 °F 41.1 °F 37.4 °F 81% 29.97 in 10.0 mi NE 3.5 mph - N/A   Clear
10:35 PM 41.0 °F - 37.4 °F 87% 29.98 in 7.0 mi Calm Calm - N/A   Clear
10:55 PM 42.8 °F 41.1 °F 39.2 °F 87% 29.98 in 10.0 mi NE 3.5 mph - N/A   Clear
11:15 PM 41.0 °F 38.0 °F 37.4 °F 87% 29.98 in 10.0 mi NE 4.6 mph - N/A   Clear
11:35 PM 41.0 °F 38.0 °F 37.4 °F 87% 29.98 in 10.0 mi ENE 4.6 mph - N/A   Clear
11:55 PM 41.0 °F 38.0 °F 37.4 °F 87% 29.98 in 10.0 mi ENE 4.6 mph - N/A   Clear